FW4672 Weather Reports


Display with metric or nautical units.
time (UTC)temp
F
wind
direction
speed
MPH
gust
MPH
rain 1hr
in
rain 24hr
in
rain mn
in
humidity
%
barometer
mb
20260508201320 69 313 0.0 0.0 0.00 0.00 0.00 86 1033.5
20260508195319 68 316 0.0 0.0 0.00 0.00 0.00 86 1033.7
20260508194322 68 227 0.0 0.0 0.00 0.00 0.00 85 1033.9
20260508192418 68 310 0.0 0.0 0.00 0.00 0.00 85 1034.2
20260508191518 68 310 0.0 0.0 0.00 0.00 0.00 85 1034.3
20260508190520 68 313 0.0 0.0 0.00 0.00 0.00 85 1034.4
20260508185520 66 318 0.0 0.0 0.00 0.00 0.00 86 1034.4
20260508184519 67 319 0.0 0.0 0.00 0.00 0.00 84 1034.5
20260508183617 67 311 0.0 0.0 0.00 0.00 0.00 83 1034.5
20260508182619 66 318 0.0 0.0 0.00 0.00 0.00 83 1034.6
20260508181619 66 329 0.0 0.0 0.00 0.00 0.00 84 1034.8
20260508180718 66 317 0.0 0.0 0.00 0.00 0.00 87 1034.7
20260508175722 65 330 0.0 0.0 0.00 0.00 0.00 88 1034.8
20260508174720 64 322 0.0 0.0 0.00 0.00 0.00 88 1034.9
20260508173719 64 323 0.0 0.0 0.00 0.00 0.00 88 1035.0
20260508172719 64 319 0.0 0.0 0.00 0.00 0.00 89 1035.1
20260508171720 63 320 0.0 0.0 0.00 0.00 0.00 88 1035.1
20260508170818 63 315 0.0 0.0 0.00 0.00 0.00 89 1035.2
20260508165821 63 315 0.0 0.0 0.00 0.00 0.00 88 1035.2
20260508163919 62 315 0.0 0.0 0.00 0.00 0.00 89 1035.1
20260508162919 62 332 0.0 0.0 0.00 0.00 0.00 89 1035.2
20260508161921 62 336 0.0 0.0 0.00 0.00 0.00 89 1035.3
20260508160919 62 329 0.0 0.0 0.00 0.00 0.00 89 1035.3
20260508160018 62 337 0.0 0.0 0.00 0.00 0.00 88 1035.3
20260508155021 62 315 0.0 0.0 0.00 0.00 0.00 88 1035.4
20260508154019 61 334 0.0 0.0 0.00 0.00 0.00 87 1035.4
20260508153019 61 180 0.0 0.0 0.00 0.00 0.00 86 1035.3
20260508152019 61 337 0.0 0.0 0.00 0.00 0.00 87 1035.3
20260508151021 61 180 0.0 0.0 0.00 0.00 0.00 86 1035.3
20260508150118 61 180 0.0 0.0 0.00 0.00 0.00 88 1035.3
20260508145118 61 180 0.0 0.0 0.00 0.00 0.00 88 1035.4
20260508144121 61 360 0.0 0.0 0.00 0.00 0.00 87 1035.2
20260508143218 61 180 0.0 0.0 0.00 0.00 0.00 88 1035.3
20260508142221 61 180 0.0 0.0 0.00 0.00 0.00 88 1035.2
20260508141319 60 337 0.0 0.0 0.00 0.00 0.00 88 1035.2
20260508140322 60 337 0.0 0.0 0.00 0.00 0.00 88 1035.0
20260508135418 60 326 0.0 0.0 0.00 0.00 0.00 88 1035.0
20260508134427 0 0 0.0 0.0 0.00 0.00 0.00 100
20260508133428 60 315 0.0 0.0 0.00 0.00 0.00 89 1034.9
20260508132427 60 315 0.0 0.0 0.00 0.00 0.00 89 1034.8
20260508125427 60 180 0.0 0.0 0.00 0.00 0.00 89 1034.7
20260508124525 60 180 0.0 0.0 0.00 0.00 0.00 89 1034.7
20260508123526 60 180 0.0 0.0 0.00 0.00 0.00 89 1034.5
20260508122526 60 180 0.0 0.0 0.00 0.00 0.00 89 1034.6
20260508121526 60 180 0.0 0.0 0.00 0.00 0.00 88 1034.6
20260508120624 60 322 0.0 0.0 0.00 0.00 0.00 89 1034.6
20260508115626 60 180 0.0 0.0 0.00 0.00 0.00 89 1034.5
20260508114627 60 180 0.0 0.0 0.00 0.00 0.00 89 1034.5
20260508113626 60 180 0.0 0.0 0.00 0.00 0.00 89 1034.5
20260508112725 60 180 0.0 0.0 0.00 0.00 0.00 88 1034.5
20260508111727 60 180 0.0 0.0 0.00 0.00 0.00 89 1034.6
20260508110725 60 337 0.0 0.0 0.00 0.00 0.00 89 1034.4
20260508103828 60 180 0.0 0.0 0.00 0.00 0.00 89 1034.4
20260508102825 61 180 0.0 0.0 0.00 0.00 0.00 88 1034.5
20260508094825 61 337 0.0 0.0 0.00 0.00 0.00 89 1034.7
20260508093825 61 337 0.0 0.0 0.00 0.00 0.00 89 1034.5
20260508092826 61 315 0.0 0.0 0.00 0.00 0.00 88 1034.5
20260508091924 61 335 0.0 0.0 0.00 0.00 0.00 89 1034.6
20260508091828 61 330 0.0 0.0 0.00 0.00 0.00 89 1034.6
20260508090826 61 180 0.0 0.0 0.00 0.00 0.00 89 1034.6
20260508085826 61 337 0.0 0.0 0.00 0.00 0.00 89 1034.7
20260508084826 61 180 0.0 0.0 0.00 0.00 0.00 89 1034.8
20260508083924 61 333 0.0 0.0 0.00 0.00 0.00 89 1034.8
20260508082927 61 180 0.0 0.0 0.00 0.00 0.00 88 1034.9
20260508081927 61 180 0.0 0.0 0.00 0.00 0.00 89 1035.1
20260508081025 61 180 0.0 0.0 0.00 0.00 0.00 89 1035.2
20260508080025 61 336 0.0 0.0 0.00 0.00 0.00 90 1035.2
20260508075124 61 180 0.0 0.0 0.00 0.00 0.00 90 1035.2
20260508074126 61 180 0.0 0.0 0.00 0.00 0.00 90 1035.3
20260508073125 61 180 0.0 0.0 0.00 0.00 0.00 90 1035.2
20260508072125 61 180 0.0 0.0 0.00 0.00 0.00 88 1035.3
20260508070125 61 360 0.0 0.0 0.00 0.00 0.00 89 1035.3
20260508065127 61 337 0.0 0.0 0.00 0.00 0.00 89 1035.5
20260508064225 61 319 0.0 0.0 0.00 0.00 0.00 89 1035.5
20260508063228 61 337 0.0 0.0 0.00 0.00 0.00 88 1035.5
20260508062227 61 337 0.0 0.0 0.00 0.00 0.00 89 1035.5
20260508061227 61 180 0.0 0.0 0.00 0.00 0.00 89 1035.6
20260508060226 61 324 0.0 0.0 0.00 0.00 0.00 89 1035.5
20260508055227 61 324 0.0 0.0 0.00 0.00 0.00 88 1035.5
20260508054228 61 335 0.0 0.0 0.00 0.00 0.00 88 1035.5
20260508053325 61 332 0.0 0.0 0.00 0.00 0.00 88 1035.5
20260508052327 61 319 0.0 0.0 0.00 0.00 0.00 89 1035.5
20260508050329 61 337 0.0 0.0 0.00 0.00 0.00 87 1035.5
20260508045341 61 337 0.0 0.0 0.00 0.00 0.00 88 1035.5
20260508044426 61 330 0.0 0.0 0.00 0.00 0.00 89 1035.3
20260508043426 61 315 0.0 0.0 0.00 0.00 0.00 89 1035.3
20260508042427 61 317 0.0 0.0 0.00 0.00 0.00 89 1035.2
20260508041426 61 319 0.0 0.0 0.00 0.00 0.00 88 1035.0
20260508040426 61 315 0.0 0.0 0.00 0.00 0.00 89 1034.8
20260508035425 61 317 0.0 0.0 0.00 0.00 0.00 89 1034.6
20260508034429 61 323 0.0 0.0 0.00 0.00 0.00 89 1034.6
20260508032527 61 315 0.0 0.0 0.00 0.00 0.00 88 1034.3
20260508031528 61 315 0.0 0.0 0.00 0.00 0.00 87 1034.1
20260508030625 61 332 0.0 0.0 0.00 0.00 0.00 89 1034.1
20260508025626 61 315 0.0 0.0 0.00 0.00 0.00 87 1033.9
20260508023725 61 315 0.0 0.0 0.00 0.00 0.00 87 1033.8
20260508022725 61 316 0.0 0.0 0.00 0.00 0.00 88 1033.7
20260508015826 62 315 0.0 0.0 0.00 0.00 0.00 89 1033.5
20260508014827 62 322 0.0 0.0 0.00 0.00 0.00 89 1033.4
20260508013926 62 331 0.0 0.0 0.00 0.00 0.00 90 1033.4
20260508012928 63 315 0.0 0.0 0.00 0.00 0.00 89 1033.5
20260508011927 63 318 0.0 0.0 0.00 0.00 0.00 89 1033.4
20260508011025 63 319 0.0 0.0 0.00 0.00 0.00 90 1033.5
20260508010026 63 337 0.0 0.0 0.00 0.00 0.00 91 1033.5
20260508004127 64 315 0.0 0.0 0.00 0.00 0.00 91 1033.4
20260508003127 64 337 0.0 0.0 0.00 0.00 0.00 92 1033.5
20260508002128 64 325 0.0 0.0 0.00 0.00 0.00 90 1033.4
20260508000227 65 316 0.0 0.0 0.00 0.00 0.00 91 1033.5
20260507234228 65 320 0.0 0.0 0.00 0.00 0.00 91 1033.5
20260507233325 65 335 0.0 0.0 0.00 0.00 0.00 90 1033.4
20260507232326 65 319 0.0 0.0 0.00 0.00 0.00 89 1033.4
20260507230428 66 331 0.0 0.0 0.00 0.00 0.00 90 1033.3
20260507225427 66 332 0.0 0.0 0.00 0.00 0.00 92 1033.4
20260507224428 65 316 0.0 0.0 0.00 0.00 0.00 89 1033.4
20260507223526 66 318 0.0 0.0 0.00 0.00 0.00 87 1033.6
20260507221528 66 316 0.0 0.0 0.00 0.00 0.00 89 1033.7
20260507214727 67 317 0.0 0.0 0.00 0.00 0.00 87 1033.9
20260507213726 68 324 0.0 0.0 0.00 0.00 0.00 88 1034.0
20260507212726 68 317 0.0 0.0 0.00 0.00 0.00 89 1034.0
20260507211727 68 323 0.0 0.0 0.00 0.00 0.00 87 1034.0
20260507205725 68 322 0.0 0.0 0.00 0.00 0.00 88 1034.2
20260507203729 68 321 0.0 0.0 0.00 0.00 0.00 87 1034.2
20260507202826 68 325 0.0 0.0 0.00 0.00 0.00 87 1034.3
20260507201827 68 327 0.0 0.0 0.00 0.00 0.00 86 1034.5